SQ9IWE-13 Weather Reports


Display with metric or nautical units.
time (UTC)temp
F
wind
direction
speed
MPH
gust
MPH
rain 1hr
in
rain 24hr
in
rain mn
in
humidity
%
barometer
mb
20260901134001 74 0 0.0 0.0 0.00 0.00 0.00 55 1018.8
20260901133001 74 0 0.0 0.0 0.00 0.00 0.00 55 1018.8
20260901132001 75 0 0.0 0.0 0.00 0.00 0.00 55 1018.9
20260901131001 75 0 0.0 0.0 0.00 0.00 0.00 55 1018.9
20260901130001 76 0 0.0 0.0 0.00 0.00 0.00 54 1018.9
20260901125001 76 0 0.0 0.0 0.00 0.00 0.00 53 1018.8
20260901124001 75 0 0.0 0.0 0.00 0.00 0.00 53 1018.9
20260901123001 76 0 0.0 0.0 0.00 0.00 0.00 52 1018.7
20260901122001 77 0 0.0 0.0 0.00 0.00 0.00 52 1018.8
20260901121001 78 0 0.0 0.0 0.00 0.00 0.00 51 1018.8
20260901120001 80 0 0.0 0.0 0.00 0.00 0.00 49 1018.9
20260901115001 80 0 0.0 0.0 0.00 0.00 0.00 50 1018.7
20260901114001 795 0 0.0 0.0 0.00 0.00 0.00 50 50.4
20260901113001 80 0 0.0 0.0 0.00 0.00 0.00 50 1018.8
20260901112001 79 0 0.0 0.0 0.00 0.00 0.00 49 1018.7
20260901111000 78 0 0.0 0.0 0.00 0.00 0.00 50 1018.9
20260901110000 81 0 0.0 0.0 0.00 0.00 0.00 48 1018.8
20260901105000 77 0 0.0 0.0 0.00 0.00 0.00 53 1018.7
20260901104000 77 0 0.0 0.0 0.00 0.00 0.00 52 1018.8
20260901103000 75 0 0.0 0.0 0.00 0.00 0.00 53 1018.8
20260901102000 76 0 0.0 0.0 0.00 0.00 0.00 52 1018.7
20260901101000 80 0 0.0 0.0 0.00 0.00 0.00 48 1018.7
20260901100000 84 0 0.0 0.0 0.00 0.00 0.00 46 1018.7
20260901095001 82 0 0.0 0.0 0.00 0.00 0.00 48 1018.5
20260901094001 82 0 0.0 0.0 0.00 0.00 0.00 47 1018.5
20260901093001 79 0 0.0 0.0 0.00 0.00 0.00 54 1018.6
20260901091001 79 0 0.0 0.0 0.00 0.00 0.00 51 1018.4
20260901090001 79 0 0.0 0.0 0.00 0.00 0.00 50 1018.5
20260901085001 80 0 0.0 0.0 0.00 0.00 0.00 49 1018.5
20260901084001 79 0 0.0 0.0 0.00 0.00 0.00 50 1018.4
20260901083001 77 0 0.0 0.0 0.00 0.00 0.00 53 1018.4
20260901081001 83 0 0.0 0.0 0.00 0.00 0.00 49 1018.3
20260901080001 80 0 0.0 0.0 0.00 0.00 0.00 52 1018.3
20260901075001 79 0 0.0 0.0 0.00 0.00 0.00 53 1018.3
20260901074001 80 0 0.0 0.0 0.00 0.00 0.00 53 1018.2
20260901073001 79 0 0.0 0.0 0.00 0.00 0.00 54 1018.1
20260901072001 75 0 0.0 0.0 0.00 0.00 0.00 58 1017.9
20260901071001 74 0 0.0 0.0 0.00 0.00 0.00 60 1017.7
20260901070001 72 0 0.0 0.0 0.00 0.00 0.00 62 1017.7
20260901065001 71 0 0.0 0.0 0.00 0.00 0.00 64 1017.7
20260901064001 70 0 0.0 0.0 0.00 0.00 0.00 64 1017.5
20260901063001 71 0 0.0 0.0 0.00 0.00 0.00 64 1017.5
20260901062001 71 0 0.0 0.0 0.00 0.00 0.00 64 1017.5
20260901061001 72 0 0.0 0.0 0.00 0.00 0.00 64 1017.4
20260901060001 69 0 0.0 0.0 0.00 0.00 0.00 67 1017.2
20260901055001 71 0 0.0 0.0 0.00 0.00 0.00 65 1017.1
20260901054001 69 0 0.0 0.0 0.00 0.00 0.00 69 1017.0
20260901053001 67 0 0.0 0.0 0.00 0.00 0.00 74 1016.9
20260901052001 66 0 0.0 0.0 0.00 0.00 0.00 77 1016.7
20260901051001 61 0 0.0 0.0 0.00 0.00 0.00 87 1016.6
20260901050001 60 0 0.0 0.0 0.00 0.00 0.00 89 1016.5
20260901045001 60 0 0.0 0.0 0.00 0.00 0.00 91 1016.6
20260901044001 59 0 0.0 0.0 0.00 0.00 0.00 92 1016.3
20260901043000 59 0 0.0 0.0 0.00 0.00 0.00 93 1016.1
20260901042000 59 0 0.0 0.0 0.00 0.00 0.00 93 1016.1
20260901041000 59 0 0.0 0.0 0.00 0.00 0.00 92 1016.1
20260901040000 59 0 0.0 0.0 0.00 0.00 0.00 92 1016.0
20260901035000 59 0 0.0 0.0 0.00 0.00 0.00 92 1016.0
20260901034000 59 0 0.0 0.0 0.00 0.00 0.00 91 1015.9
20260901033000 59 0 0.0 0.0 0.00 0.00 0.00 90 1015.9
20260901032000 59 0 0.0 0.0 0.00 0.00 0.00 90 1015.8
20260901031001 60 0 0.0 0.0 0.00 0.00 0.00 89 1015.8
20260901025001 61 0 0.0 0.0 0.00 0.00 0.00 87 1015.6
20260901024001 61 0 0.0 0.0 0.00 0.00 0.00 86 1015.7
20260901023001 61 0 0.0 0.0 0.00 0.00 0.00 87 1015.8
20260901022001 61 0 0.0 0.0 0.00 0.00 0.00 88 1015.8
20260901021001 62 0 0.0 0.0 0.00 0.00 0.00 87 1015.8
20260901020001 62 0 0.0 0.0 0.00 0.00 0.00 86 1015.6
20260901015001 63 0 0.0 0.0 0.00 0.00 0.00 86 1015.5
20260901014001 63 0 0.0 0.0 0.00 0.00 0.00 85 1015.5
20260901013001 64 0 0.0 0.0 0.00 0.00 0.00 85 1015.7
20260901012001 64 0 0.0 0.0 0.00 0.00 0.00 84 1015.6
20260901011001 64 0 0.0 0.0 0.00 0.00 0.00 84 1015.5
20260901010001 64 0 0.0 0.0 0.00 0.00 0.00 83 11.0
20260901005001 64 0 0.0 0.0 0.00 0.00 0.00 85 1015.7
20260901004001 64 0 0.0 0.0 0.00 0.00 0.00 86 1015.8
20260901003001 63 0 0.0 0.0 0.00 0.00 0.00 87 1015.8
20260901002001 62 0 0.0 0.0 0.00 0.00 0.00 90 1015.8
20260901001001 62 0 0.0 0.0 0.00 0.00 0.00 92 1015.9
20260901000001 62 0 0.0 0.0 0.00 0.00 0.00 92 1015.8
20260831235001 62 0 0.0 0.0 0.00 0.00 0.00 92 1015.8
20260831234001 62 0 0.0 0.0 0.00 0.00 0.00 93 1015.9
20260831233001 62 0 0.0 0.0 0.00 0.00 0.00 92 1015.9
20260831232001 62 0 0.0 0.0 0.00 0.00 0.00 92 1016.0
20260831231001 62 0 0.0 0.0 0.00 0.00 0.00 92 1016.0
20260831230001 62 0 0.0 0.0 0.00 0.00 0.00 93 1016.0
20260831225001 62 0 0.0 0.0 0.00 0.00 0.00 92 1016.2
20260831224001 62 0 0.0 0.0 0.00 0.00 0.00 92 1016.2
20260831223001 62 0 0.0 0.0 0.00 0.00 0.00 92 1016.1
20260831222001 62 0 0.0 0.0 0.00 0.00 0.00 91 1016.2
20260831221000 63 0 0.0 0.0 0.00 0.00 0.00 91 1016.1
20260831220000 63 0 0.0 0.0 0.00 0.00 0.00 91 1016.0
20260831215000 63 0 0.0 0.0 0.00 0.00 0.00 90 1016.0
20260831214000 63 0 0.0 0.0 0.00 0.00 0.00 90 1015.9
20260831213000 63 0 0.0 0.0 0.00 0.00 0.00 89 1015.9
20260831212000 64 0 0.0 0.0 0.00 0.00 0.00 88 1015.8
20260831211000 64 0 0.0 0.0 0.00 0.00 0.00 87 1015.6
20260831205000 64 0 0.0 0.0 0.00 0.00 0.00 85 1015.6
20260831204000 65 0 0.0 0.0 0.00 0.00 0.00 85 1015.4
20260831203001 65 0 0.0 0.0 0.00 0.00 0.00 85 1015.4
20260831201001 66 0 0.0 0.0 0.00 0.00 0.00 85 1015.4
20260831200001 66 0 0.0 0.0 0.00 0.00 0.00 84 1015.4
20260831195001 66 0 0.0 0.0 0.00 0.00 0.00 84 1015.4
20260831194001 66 0 0.0 0.0 0.00 0.00 0.00 83 1015.3
20260831193001 67 0 0.0 0.0 0.00 0.00 0.00 82 1015.3
20260831192001 67 0 0.0 0.0 0.00 0.00 0.00 81 1015.3
20260831191001 68 0 0.0 0.0 0.00 0.00 0.00 80 1015.2
20260831190001 68 0 0.0 0.0 0.00 0.00 0.00 79 1015.2
20260831185001 69 0 0.0 0.0 0.00 0.00 0.00 78 1015.3
20260831184001 69 0 0.0 0.0 0.00 0.00 0.00 78 1015.2
20260831183001 69 0 0.0 0.0 0.00 0.00 0.00 77 1015.1
20260831182001 70 0 0.0 0.0 0.00 0.00 0.00 76 1015.0
20260831174001 72 0 0.0 0.0 0.00 0.00 0.00 72 1014.5
20260831173001 73 0 0.0 0.0 0.00 0.00 0.00 71 1014.2
20260831172001 74 0 0.0 0.0 0.00 0.00 0.00 71 1014.2
20260831171001 74 0 0.0 0.0 0.00 0.00 0.00 69 1014.1
20260831170001 75 0 0.0 0.0 0.00 0.00 0.00 68 1014.1
20260831165001 76 0 0.0 0.0 0.00 0.00 0.00 68 1014.1
20260831164001 76 0 0.0 0.0 0.00 0.00 0.00 67 1014.0
20260831163001 76 0 0.0 0.0 0.00 0.00 0.00 67 1014.0
20260831162001 76 0 0.0 0.0 0.00 0.00 0.00 67 1013.9
20260831161001 76 0 0.0 0.0 0.00 0.00 0.00 67 1013.8
20260831160001 76 0 0.0 0.0 0.00 0.00 0.00 67 1013.9
20260831155001 76 0 0.0 0.0 0.00 0.00 0.00 67 1013.8
20260831154001 76 0 0.0 0.0 0.00 0.00 0.00 67 1013.9
20260831153000 76 0 0.0 0.0 0.00 0.00 0.00 66 1014.0
20260831152000 77 0 0.0 0.0 0.00 0.00 0.00 65 1014.0
20260831151000 77 0 0.0 0.0 0.00 0.00 0.00 64 1014.1
20260831150000 78 0 0.0 0.0 0.00 0.00 0.00 63 1014.1
20260831145000 78 0 0.0 0.0 0.00 0.00 0.00 63 1014.1
20260831144000 78 0 0.0 0.0 0.00 0.00 0.00 64 1014.2
20260831143000 78 0 0.0 0.0 0.00 0.00 0.00 65 1014.1
20260831142000 77 0 0.0 0.0 0.00 0.00 0.00 65 1014.2
20260831141000 78 0 0.0 0.0 0.00 0.00 0.00 65 1014.1
20260831140001 79 0 0.0 0.0 0.00 0.00 0.00 62 1014.1
20260831135001 79 0 0.0 0.0 0.00 0.00 0.00 61 1014.2